Location: Calvera
(42.3882°N, 0.6137°E)
Time: 14:10:38
(UTC+00:00)

Cosmos 2058 Rocket - Pass Details

Date: 28 October 2020
Orbit: 610 x 639 km, 82.5° (Epoch: 24 November)

Event Time Altitude Azimuth Distance (km) Brightness Sun altitude
Rises 05:24:27 0° 347° (NNW) 2,947 6.3 -12.0°
Reaches altitude 10° 05:26:44 10° 343° (NNW) 2,030 5.5 -11.6°
Maximum altitude 05:31:08 56° 266° (W) 758 3.2 -10.8°
Drops below altitude 10° 05:35:28 10° 189° (S) 1,999 5.7 -10.0°
Sets 05:37:42 0° 185° (S) 2,896 6.6 -9.6°
